Location: Follega
(52.8850°N, 5.7362°E)
Time: 20:35:26
(UTC+00:00)

SL-16 R/B - Pass Details

Date: 01 June 2020
Orbit: 986 x 1006 km, 99.5° (Epoch: 04 July)

Event Time Altitude Azimuth Distance (km) Brightness Sun altitude
Rises 23:20:08 0° 116° (ESE) 3,691 5.2 -14.8°
Reaches altitude 10° 23:23:00 10° 104° (ESE) 2,747 4.7 -14.9°
Maximum altitude 23:27:53 26° 52° (NE) 1,865 4.4 -14.9°
Drops below altitude 10° 23:32:47 10° 359° (N) 2,765 6.3 -14.9°
Sets 23:35:40 0° 347° (NNW) 3,721 7.2 -14.9°
